Station Historical Data
Daily Summary for September 23, 2017 Units:  Metric    English   Both
« Previous Day
Next Day »
Daily Weekly Monthly Yearly Custom
  High: Low: Average:
Temperature: 29.1 °C 14.1 °C 21.4 °C
Dew Point: 19.9 °C 11.9 °C 15.1 °C
Humidity: 88% 46% 69%
Wind Speed: 11.3km/h 0km/h 1.9km/h
Wind Gust: 14.5km/h - -
Wind- - SW
Pressure: 1020.5 hPa 1017.5 hPa -
Precipitation: 0 mm    
Historical Graphs
 
 
Tabular Data for September 23, 2017
Time Temperature Dew Point Pressure Wind Wind Speed Wind Gust Humidity Rainfall Rate (Hourly)
00:04 17.8 °C 13.7 °C 1018.5 hPa Calm     77% 0 mm
00:09 17.8 °C 13.7 °C 1018.5 hPa Calm     77% 0 mm
00:14 17.7 °C 13.8 °C 1018.5 hPa Calm     78% 0 mm
00:19 17.7 °C 13.8 °C 1018.5 hPa Calm     78% 0 mm
00:24 17.6 °C 13.7 °C 1018.5 hPa Calm     78% 0 mm
00:29 17.4 °C 13.8 °C 1018.5 hPa Calm     79% 0 mm
00:34 17.3 °C 13.7 °C 1018.5 hPa Calm     79% 0 mm
00:39 17.3 °C 13.6 °C 1018.5 hPa Calm     79% 0 mm
00:44 17.2 °C 13.7 °C 1018.5 hPa Calm     80% 0 mm
00:49 17.2 °C 13.7 °C 1018.5 hPa Calm     80% 0 mm
00:54 17.1 °C 13.6 °C 1018.5 hPa Calm     80% 0 mm
00:59 16.9 °C 13.7 °C 1018.2 hPa Calm     81% 0 mm
01:04 16.8 °C 13.6 °C 1018.5 hPa Calm     81% 0 mm
01:09 16.8 °C 13.6 °C 1018.5 hPa Calm     81% 0 mm
01:14 16.7 °C 13.4 °C 1018.5 hPa Calm     81% 0 mm
01:19 16.6 °C 13.5 °C 1018.5 hPa Calm     82% 0 mm
01:24 16.6 °C 13.4 °C 1018.2 hPa Calm     82% 0 mm
01:29 16.6 °C 13.4 °C 1018.2 hPa Calm     82% 0 mm
01:34 16.4 °C 13.3 °C 1018.2 hPa Calm     82% 0 mm
01:39 16.4 °C 13.3 °C 1017.8 hPa Calm     82% 0 mm
01:44 16.4 °C 13.3 °C 1017.8 hPa Calm     82% 0 mm
01:49 16.3 °C 13.3 °C 1017.8 hPa Calm     82% 0 mm
01:54 16.3 °C 13.4 °C 1017.8 hPa Calm     83% 0 mm
01:59 16.2 °C 13.3 °C 1018.2 hPa Calm     83% 0 mm
02:04 16 °C 13.1 °C 1018.2 hPa Calm     83% 0 mm
02:09 15.8 °C 13.1 °C 1018.2 hPa Calm     84% 0 mm
02:14 15.7 °C 13 °C 1018.2 hPa Calm     84% 0 mm
02:19 15.7 °C 12.9 °C 1018.2 hPa Calm     84% 0 mm
02:24 15.6 °C 13.1 °C 1018.2 hPa Calm     85% 0 mm
02:29 15.5 °C 13 °C 1018.2 hPa Calm     85% 0 mm
02:34 15.4 °C 12.9 °C 1018.2 hPa Calm     85% 0 mm
02:39 15.4 °C 12.9 °C 1017.8 hPa Calm     85% 0 mm
02:44 15.4 °C 13.1 °C 1017.8 hPa Calm     86% 0 mm
02:49 15.3 °C 12.9 °C 1017.8 hPa Calm     86% 0 mm
02:54 15.2 °C 12.9 °C 1017.8 hPa Calm     86% 0 mm
02:59 15.2 °C 12.9 °C 1017.8 hPa Calm     86% 0 mm
03:04 15.2 °C 12.8 °C 1017.8 hPa Calm     86% 0 mm
03:09 15.1 °C 12.8 °C 1017.8 hPa Calm     86% 0 mm
03:14 15.1 °C 12.8 °C 1017.8 hPa Calm     86% 0 mm
03:19 15 °C 12.8 °C 1018.2 hPa Calm     87% 0 mm
03:24 15.1 °C 12.9 °C 1017.8 hPa Calm     87% 0 mm
03:29 15.1 °C 12.9 °C 1017.8 hPa Calm     87% 0 mm
03:34 15.2 °C 13.1 °C 1017.8 hPa Calm     87% 0 mm
03:39 15.3 °C 13.1 °C 1017.8 hPa Calm     87% 0 mm
03:44 15.3 °C 13.1 °C 1017.8 hPa Calm     87% 0 mm
03:54 15.3 °C 12.9 °C 1017.8 hPa Calm     86% 0 mm
03:59 15.3 °C 13 °C 1017.5 hPa Calm     86% 0 mm
04:04 15.3 °C 13 °C 1017.5 hPa Calm     86% 0 mm
04:09 15.3 °C 13 °C 1017.5 hPa Calm     86% 0 mm
04:14 15.3 °C 13 °C 1017.5 hPa Calm     86% 0 mm
04:19 15.3 °C 12.8 °C 1017.5 hPa Calm     85% 0 mm
04:24 15.3 °C 12.8 °C 1017.5 hPa Calm     85% 0 mm
04:29 15.3 °C 12.8 °C 1017.5 hPa Calm     85% 0 mm
04:34 15.2 °C 12.7 °C 1017.5 hPa Calm     85% 0 mm
04:39 15.1 °C 12.6 °C 1017.5 hPa Calm     85% 0 mm
04:44 14.9 °C 12.4 °C 1017.8 hPa Calm     85% 0 mm
04:49 14.9 °C 12.6 °C 1017.5 hPa Calm     86% 0 mm
04:54 14.8 °C 12.4 °C 1017.8 hPa Calm     86% 0 mm
04:59 14.7 °C 12.4 °C 1017.8 hPa Calm     86% 0 mm
05:04 14.6 °C 12.1 °C 1017.8 hPa Calm     85% 0 mm
05:09 14.6 °C 12.2 °C 1017.8 hPa Calm     86% 0 mm
05:14 14.6 °C 12.2 °C 1017.8 hPa Calm     86% 0 mm
05:19 14.6 °C 12.2 °C 1017.8 hPa Calm     86% 0 mm
05:24 14.6 °C 12.2 °C 1018.2 hPa Calm     86% 0 mm
05:29 14.6 °C 12.2 °C 1018.2 hPa Calm     86% 0 mm
05:34 14.5 °C 12.2 °C 1018.2 hPa Calm     86% 0 mm
05:39 14.4 °C 12.1 °C 1018.2 hPa Calm     86% 0 mm
05:44 14.4 °C 12.1 °C 1018.2 hPa Calm     86% 0 mm
05:49 14.3 °C 11.9 °C 1018.2 hPa Calm     86% 0 mm
05:54 14.2 °C 11.9 °C 1018.2 hPa Calm     86% 0 mm
05:59 14.2 °C 12.1 °C 1018.5 hPa Calm     87% 0 mm
06:04 14.2 °C 12.1 °C 1018.5 hPa Calm     87% 0 mm
06:09 14.1 °C 12 °C 1018.5 hPa Calm     87% 0 mm
06:14 14.3 °C 12.3 °C 1018.5 hPa Calm     88% 0 mm
06:19 14.4 °C 12.3 °C 1018.5 hPa Calm     87% 0 mm
06:24 14.4 °C 12.3 °C 1018.8 hPa Calm     87% 0 mm
06:29 14.4 °C 12.3 °C 1018.8 hPa Calm     87% 0 mm
06:34 14.4 °C 12.1 °C 1018.8 hPa Calm     86% 0 mm
06:39 14.4 °C 12.1 °C 1019.2 hPa Calm     86% 0 mm
06:44 14.3 °C 12 °C 1018.8 hPa Calm     86% 0 mm
06:49 14.2 °C 12.1 °C 1019.2 hPa Calm     87% 0 mm
06:54 14.2 °C 12.1 °C 1019.2 hPa Calm     87% 0 mm
06:59 14.1 °C 11.9 °C 1019.2 hPa Calm     87% 0 mm
07:04 14.1 °C 11.9 °C 1019.2 hPa Calm     87% 0 mm
07:09 14.1 °C 12.2 °C 1019.2 hPa Calm     88% 0 mm
07:14 14.2 °C 12.3 °C 1019.5 hPa Calm     88% 0 mm
07:19 14.4 °C 12.3 °C 1019.5 hPa Calm     87% 0 mm
07:24 14.5 °C 12.3 °C 1019.5 hPa Calm     87% 0 mm
07:29 14.7 °C 12.5 °C 1019.5 hPa Calm     87% 0 mm
07:34 14.9 °C 12.6 °C 1019.5 hPa Calm     86% 0 mm
07:39 15.1 °C 12.6 °C 1019.5 hPa Calm     85% 0 mm
07:44 15.2 °C 12.6 °C 1019.5 hPa Calm     84% 0 mm
07:49 15.3 °C 12.7 °C 1019.9 hPa Calm     84% 0 mm
07:54 15.5 °C 12.6 °C 1019.9 hPa Calm     83% 0 mm
07:59 15.7 °C 12.7 °C 1019.9 hPa Calm     82% 0 mm
08:04 15.9 °C 12.6 °C 1019.9 hPa Calm     81% 0 mm
08:09 16.1 °C 12.8 °C 1020.2 hPa Calm     81% 0 mm
08:14 16.3 °C 12.9 °C 1020.2 hPa Calm     80% 0 mm
08:19 16.6 °C 12.9 °C 1020.2 hPa Calm     79% 0 mm
08:24 16.7 °C 12.9 °C 1020.2 hPa Calm     78% 0 mm
08:29 17.1 °C 12.8 °C 1020.2 hPa Calm     76% 0 mm
08:34 17.4 °C 13.2 °C 1020.2 hPa Calm     76% 0 mm
08:39 17.9 °C 13.4 °C 1020.2 hPa Calm     75% 0 mm
08:44 18.2 °C 13.4 °C 1020.2 hPa Calm     74% 0 mm
08:49 18.5 °C 13.2 °C 1020.2 hPa Calm     71% 0 mm
08:54 18.8 °C 13.4 °C 1020.2 hPa Calm     71% 0 mm
08:59 19.1 °C 13.4 °C 1020.2 hPa Calm     70% 0 mm
09:04 19.4 °C 13.8 °C 1020.2 hPa Calm     70% 0 mm
09:09 19.7 °C 13.6 °C 1020.5 hPa SE 1.6 km/h 4.8 km/h 68% 0 mm
09:14 20.1 °C 13.7 °C 1020.5 hPa Calm   6.4 km/h 67% 0 mm
09:19 20.1 °C 13.3 °C 1020.5 hPa Calm   4.8 km/h 65% 0 mm
09:24 20.2 °C 13.7 °C 1020.5 hPa Calm     66% 0 mm
09:29 20.6 °C 13.7 °C 1020.5 hPa Calm     65% 0 mm
09:34 20.9 °C 13.9 °C 1020.5 hPa Calm     64% 0 mm
09:39 21 °C 13.7 °C 1020.5 hPa Calm   8 km/h 63% 0 mm
09:44 21.5 °C 13.9 °C 1020.5 hPa SW 4.8 km/h 6.4 km/h 62% 0 mm
09:49 21.8 °C 14.2 °C 1020.5 hPa SW 1.6 km/h 4.8 km/h 62% 0 mm
09:54 22.1 °C 14.2 °C 1020.5 hPa SW 1.6 km/h 4.8 km/h 61% 0 mm
09:59 22.4 °C 14.6 °C 1020.5 hPa SW 1.6 km/h 4.8 km/h 61% 0 mm
10:04 22.8 °C 14.3 °C 1020.5 hPa SW 1.6 km/h 4.8 km/h 59% 0 mm
10:09 22.9 °C 14.4 °C 1020.5 hPa Calm     59% 0 mm
10:14 23.2 °C 14.7 °C 1020.5 hPa Calm     59% 0 mm
10:19 23.5 °C 14.8 °C 1020.5 hPa Calm   6.4 km/h 58% 0 mm
10:24 23.7 °C 14.7 °C 1020.5 hPa SSW 3.2 km/h 6.4 km/h 57% 0 mm
10:29 24.2 °C 15.1 °C 1020.5 hPa SSE 1.6 km/h 6.4 km/h 57% 0 mm
10:34 24.2 °C 14.6 °C 1020.5 hPa South 1.6 km/h 6.4 km/h 55% 0 mm
10:39 24.2 °C 14.9 °C 1020.5 hPa SSW 4.8 km/h 9.7 km/h 56% 0 mm
10:44 24.7 °C 15 °C 1020.5 hPa SSE 6.4 km/h 6.4 km/h 55% 0 mm
10:49 25 °C 15.1 °C 1020.5 hPa SSW 3.2 km/h 8 km/h 54% 0 mm
10:54 25.1 °C 14.8 °C 1020.5 hPa SSW 3.2 km/h 8 km/h 53% 0 mm
10:59 25.2 °C 14.9 °C 1020.5 hPa SW 4.8 km/h 11.3 km/h 53% 0 mm
11:04 25.4 °C 15.1 °C 1020.5 hPa WSW 4.8 km/h 9.7 km/h 53% 0 mm
11:09 25.9 °C 15.9 °C 1020.2 hPa SSW 4.8 km/h 9.7 km/h 54% 0 mm
11:14 26.2 °C 15.6 °C 1020.2 hPa SW 3.2 km/h 9.7 km/h 52% 0 mm
11:19 26.3 °C 15.7 °C 1020.2 hPa SW 3.2 km/h 9.7 km/h 52% 0 mm
11:24 26.5 °C 15.2 °C 1020.2 hPa SW 4.8 km/h 8 km/h 50% 0 mm
11:29 26.4 °C 16.1 °C 1019.9 hPa SSW 3.2 km/h 9.7 km/h 53% 0 mm
11:34 26.6 °C 15.3 °C 1019.9 hPa SW 6.4 km/h 9.7 km/h 50% 0 mm
11:39 26.9 °C 15.9 °C 1019.9 hPa South 8 km/h 9.7 km/h 51% 0 mm
11:44 27 °C 15.7 °C 1019.9 hPa Calm   8 km/h 50% 0 mm
11:49 27.2 °C 15.9 °C 1019.9 hPa SW 4.8 km/h 11.3 km/h 50% 0 mm
11:54 27.3 °C 16 °C 1019.9 hPa SW 3.2 km/h 11.3 km/h 50% 0 mm
11:59 27.4 °C 17.3 °C 1019.9 hPa WSW 4.8 km/h 9.7 km/h 54% 0 mm
12:04 27.9 °C 15.6 °C 1020.2 hPa West 3.2 km/h 9.7 km/h 47% 0 mm
12:09 27.8 °C 16.4 °C 1020.2 hPa West 1.6 km/h 8 km/h 50% 0 mm
12:14 28.1 °C 15.7 °C 1020.2 hPa WSW 9.7 km/h 9.7 km/h 47% 0 mm
12:19 27.6 °C 15.6 °C 1020.2 hPa SW 3.2 km/h 11.3 km/h 48% 0 mm
12:24 27.9 °C 15.2 °C 1020.2 hPa SW 4.8 km/h 11.3 km/h 46% 0 mm
12:29 27.8 °C 16.1 °C 1019.9 hPa WSW 3.2 km/h 11.3 km/h 49% 0 mm
12:34 27.9 °C 16.6 °C 1020.2 hPa WSW 4.8 km/h 9.7 km/h 50% 0 mm
12:39 27.9 °C 16.9 °C 1020.2 hPa West 4.8 km/h 8 km/h 51% 0 mm
12:44 28.3 °C 18.1 °C 1020.2 hPa West 3.2 km/h 6.4 km/h 54% 0 mm
12:49 28.3 °C 16.6 °C 1020.2 hPa WSW 6.4 km/h 11.3 km/h 49% 0 mm
12:54 28.1 °C 17.6 °C 1019.9 hPa West 4.8 km/h 11.3 km/h 53% 0 mm
12:59 28.2 °C 17.1 °C 1019.9 hPa West 3.2 km/h 9.7 km/h 51% 0 mm
13:04 28.2 °C 17.4 °C 1019.9 hPa WNW 1.6 km/h 9.7 km/h 52% 0 mm
13:09 28.6 °C 17.1 °C 1019.9 hPa SW 8 km/h 11.3 km/h 50% 0 mm
13:14 28.6 °C 18.4 °C 1019.9 hPa WNW 4.8 km/h 9.7 km/h 54% 0 mm
13:19 28.6 °C 17.2 °C 1019.9 hPa West 4.8 km/h 11.3 km/h 50% 0 mm
13:24 29.1 °C 17.6 °C 1019.9 hPa WSW 4.8 km/h 11.3 km/h 50% 0 mm
13:29 28.9 °C 18.4 °C 1019.9 hPa WSW 4.8 km/h 12.9 km/h 53% 0 mm
13:34 28.9 °C 18.7 °C 1019.9 hPa WSW 4.8 km/h 12.9 km/h 54% 0 mm
13:39 28.8 °C 18.6 °C 1019.9 hPa SW 6.4 km/h 11.3 km/h 54% 0 mm
13:44 28.4 °C 18.2 °C 1019.5 hPa WSW 3.2 km/h 9.7 km/h 54% 0 mm
13:54 28.7 °C 18.7 °C 1019.5 hPa SW 4.8 km/h 12.9 km/h 55% 0 mm
13:59 28.8 °C 19.2 °C 1019.9 hPa SW 4.8 km/h 11.3 km/h 56% 0 mm
14:05 28.8 °C 19.9 °C 1019.9 hPa SW 1.6 km/h 9.7 km/h 59% 0 mm
14:14 28.7 °C 19.3 °C 1019.9 hPa SW 11.3 km/h 14.5 km/h 57% 0 mm
14:19 28.7 °C 18.7 °C 1019.5 hPa WSW 6.4 km/h 14.5 km/h 55% 0 mm
14:24 29 °C 19.1 °C 1019.5 hPa WSW 6.4 km/h 11.3 km/h 55% 0 mm
14:29 28.8 °C 19.2 °C 1019.5 hPa SW 6.4 km/h 11.3 km/h 56% 0 mm
14:34 28.7 °C 18.7 °C 1019.5 hPa SW 3.2 km/h 12.9 km/h 55% 0 mm
14:39 28.8 °C 18.9 °C 1019.5 hPa SW 6.4 km/h 11.3 km/h 55% 0 mm
14:44 28.8 °C 18.8 °C 1019.2 hPa SSW 1.6 km/h 11.3 km/h 55% 0 mm
14:49 28.8 °C 18.8 °C 1019.2 hPa SW 6.4 km/h 11.3 km/h 55% 0 mm
14:54 28.9 °C 18.7 °C 1019.2 hPa SW 6.4 km/h 12.9 km/h 54% 0 mm
14:59 28.7 °C 18.2 °C 1019.2 hPa WSW 6.4 km/h 12.9 km/h 53% 0 mm
15:04 28.8 °C 18.6 °C 1019.2 hPa WSW 6.4 km/h 11.3 km/h 54% 0 mm
15:09 29.1 °C 18.3 °C 1019.2 hPa SSW 6.4 km/h 12.9 km/h 52% 0 mm
15:14 29.1 °C 18.2 °C 1019.2 hPa SSW 1.6 km/h 14.5 km/h 52% 0 mm
15:19 29.1 °C 18.3 °C 1019.2 hPa SW 6.4 km/h 14.5 km/h 52% 0 mm
15:24 28.9 °C 18.1 °C 1019.2 hPa SW 8 km/h 14.5 km/h 52% 0 mm
15:29 28.7 °C 17.6 °C 1018.8 hPa SW 11.3 km/h 11.3 km/h 51% 0 mm
15:34 28.7 °C 18.4 °C 1018.8 hPa South 3.2 km/h 11.3 km/h 54% 0 mm
15:39 28.8 °C 18.2 °C 1018.8 hPa SW 6.4 km/h 11.3 km/h 53% 0 mm
15:44 28.9 °C 18.1 °C 1018.8 hPa SW 9.7 km/h 11.3 km/h 52% 0 mm
15:49 28.8 °C 17.9 °C 1018.8 hPa SW 6.4 km/h 11.3 km/h 52% 0 mm
15:54 28.8 °C 17.7 °C 1018.8 hPa SSW 4.8 km/h 8 km/h 51% 0 mm
15:59 28.6 °C 17.4 °C 1018.8 hPa West 6.4 km/h 9.7 km/h 51% 0 mm
16:04 28.3 °C 17.2 °C 1018.5 hPa SW 4.8 km/h 14.5 km/h 51% 0 mm
16:09 28.3 °C 17.6 °C 1018.8 hPa South 8 km/h 14.5 km/h 52% 0 mm
16:14 28.3 °C 17.6 °C 1018.5 hPa WSW 4.8 km/h 11.3 km/h 52% 0 mm
16:19 28.3 °C 17.8 °C 1018.5 hPa WSW 6.4 km/h 11.3 km/h 53% 0 mm
16:24 28.1 °C 17.3 °C 1018.5 hPa WSW 6.4 km/h 12.9 km/h 52% 0 mm
16:29 27.9 °C 17.1 °C 1018.5 hPa WSW 6.4 km/h 14.5 km/h 52% 0 mm
16:34 27.8 °C 17 °C 1018.5 hPa WSW 6.4 km/h 14.5 km/h 52% 0 mm
16:39 27.8 °C 17 °C 1018.5 hPa WSW 6.4 km/h 12.9 km/h 52% 0 mm
16:44 27.7 °C 17.3 °C 1018.5 hPa WSW 6.4 km/h 11.3 km/h 53% 0 mm
16:49 27.8 °C 16.7 °C 1018.5 hPa WSW 4.8 km/h 11.3 km/h 51% 0 mm
16:54 27.6 °C 16.6 °C 1018.2 hPa WSW 6.4 km/h 12.9 km/h 51% 0 mm
16:59 27.6 °C 16.9 °C 1018.2 hPa WSW 3.2 km/h 9.7 km/h 52% 0 mm
17:04 27.7 °C 16.3 °C 1018.2 hPa WSW 1.6 km/h 12.9 km/h 50% 0 mm
17:09 27.7 °C 16.9 °C 1018.2 hPa West 4.8 km/h 8 km/h 52% 0 mm
17:14 27.7 °C 16.9 °C 1018.2 hPa SW 6.4 km/h 8 km/h 52% 0 mm
17:19 27.7 °C 16.6 °C 1018.5 hPa WSW 4.8 km/h 8 km/h 51% 0 mm
17:24 27.4 °C 16.7 °C 1018.5 hPa SW 4.8 km/h 9.7 km/h 52% 0 mm
17:29 27.3 °C 15.9 °C 1018.5 hPa WSW 4.8 km/h 9.7 km/h 50% 0 mm
17:34 27.1 °C 16.1 °C 1018.5 hPa WSW 4.8 km/h 9.7 km/h 51% 0 mm
17:39 26.9 °C 16.2 °C 1018.5 hPa West 4.8 km/h 9.7 km/h 52% 0 mm
17:44 26.6 °C 15.9 °C 1018.5 hPa SW 6.4 km/h 9.7 km/h 52% 0 mm
17:49 26.5 °C 16.2 °C 1018.5 hPa West 8 km/h 9.7 km/h 53% 0 mm
17:54 26.3 °C 16 °C 1018.5 hPa WSW 4.8 km/h 9.7 km/h 53% 0 mm
17:59 26.2 °C 15.3 °C 1018.5 hPa WSW 4.8 km/h 9.7 km/h 51% 0 mm
18:04 26.1 °C 15.7 °C 1018.5 hPa SW 4.8 km/h 11.3 km/h 53% 0 mm
18:09 25.9 °C 15.6 °C 1018.5 hPa WSW 4.8 km/h 8 km/h 53% 0 mm
18:14 25.8 °C 15.8 °C 1018.5 hPa SW 6.4 km/h 11.3 km/h 54% 0 mm
18:19 25.8 °C 15.8 °C 1018.5 hPa SW 4.8 km/h 11.3 km/h 54% 0 mm
18:24 25.7 °C 15.4 °C 1018.5 hPa WSW 4.8 km/h 11.3 km/h 53% 0 mm
18:29 25.6 °C 15.3 °C 1018.5 hPa WSW 4.8 km/h 9.7 km/h 53% 0 mm
18:34 25.6 °C 15.3 °C 1018.5 hPa WSW 4.8 km/h 8 km/h 53% 0 mm
18:39 25.4 °C 15.1 °C 1018.5 hPa WSW 1.6 km/h 11.3 km/h 53% 0 mm
18:44 25.3 °C 15 °C 1018.5 hPa WSW 3.2 km/h 8 km/h 53% 0 mm
18:49 25.2 °C 15.5 °C 1018.5 hPa Calm   4.8 km/h 55% 0 mm
18:54 24.9 °C 15.8 °C 1018.5 hPa Calm   4.8 km/h 57% 0 mm
18:59 24.7 °C 15.8 °C 1018.5 hPa WSW 1.6 km/h 4.8 km/h 58% 0 mm
19:04 24.5 °C 15.4 °C 1018.5 hPa WSW 3.2 km/h 8 km/h 57% 0 mm
19:09 24.4 °C 15.3 °C 1018.5 hPa WSW 3.2 km/h 8 km/h 57% 0 mm
19:14 24.3 °C 15.6 °C 1018.5 hPa SW 3.2 km/h 8 km/h 58% 0 mm
19:19 24.2 °C 15.4 °C 1018.5 hPa WSW 1.6 km/h 8 km/h 58% 0 mm
19:24 24.1 °C 15.8 °C 1018.5 hPa WSW 1.6 km/h 8 km/h 60% 0 mm
19:29 23.9 °C 15.7 °C 1018.5 hPa WSW 3.2 km/h 4.8 km/h 60% 0 mm
19:34 23.7 °C 15.8 °C 1018.5 hPa Calm   3.2 km/h 61% 0 mm
19:39 23.6 °C 15.8 °C 1018.5 hPa WSW 1.6 km/h 1.6 km/h 62% 0 mm
19:44 23.4 °C 15.7 °C 1018.5 hPa Calm   1.6 km/h 62% 0 mm
19:49 23.3 °C 15.9 °C 1018.5 hPa Calm     63% 0 mm
19:54 23.3 °C 15.8 °C 1018.5 hPa Calm     63% 0 mm
19:59 23.1 °C 15.9 °C 1018.5 hPa Calm     64% 0 mm
20:04 22.9 °C 15.8 °C 1018.5 hPa Calm     64% 0 mm
20:09 22.8 °C 15.8 °C 1018.5 hPa Calm     65% 0 mm
20:14 22.7 °C 15.8 °C 1018.5 hPa Calm     65% 0 mm
20:19 22.6 °C 15.7 °C 1018.5 hPa Calm     65% 0 mm
20:24 22.4 °C 15.6 °C 1018.8 hPa Calm     65% 0 mm
20:29 22.4 °C 15.7 °C 1018.8 hPa Calm     66% 0 mm
20:34 22.3 °C 15.6 °C 1018.5 hPa Calm     66% 0 mm
20:39 22.1 °C 15.7 °C 1018.8 hPa Calm     67% 0 mm
20:44 22 °C 15.6 °C 1018.8 hPa Calm     67% 0 mm
20:49 22 °C 15.6 °C 1018.8 hPa Calm     67% 0 mm
20:54 21.8 °C 15.7 °C 1018.8 hPa Calm     68% 0 mm
20:59 21.7 °C 15.8 °C 1018.8 hPa Calm     69% 0 mm
21:04 21.7 °C 15.7 °C 1018.8 hPa Calm     69% 0 mm
21:09 21.6 °C 15.6 °C 1018.8 hPa Calm     69% 0 mm
21:14 21.4 °C 15.7 °C 1018.8 hPa Calm     70% 0 mm
21:19 21.3 °C 15.6 °C 1018.8 hPa Calm     70% 0 mm
21:24 21.3 °C 15.8 °C 1018.8 hPa Calm     71% 0 mm
21:29 21.3 °C 15.8 °C 1018.8 hPa Calm     71% 0 mm
21:34 21.2 °C 15.9 °C 1018.8 hPa Calm     72% 0 mm
21:39 21.2 °C 16.1 °C 1018.8 hPa Calm     73% 0 mm
21:44 21.1 °C 16.1 °C 1018.8 hPa Calm     73% 0 mm
21:49 21 °C 16.2 °C 1018.8 hPa Calm     74% 0 mm
21:54 20.9 °C 16.1 °C 1018.8 hPa Calm     74% 0 mm
21:59 20.8 °C 16.2 °C 1018.8 hPa Calm     75% 0 mm
22:04 20.8 °C 16.2 °C 1018.8 hPa Calm     75% 0 mm
22:09 20.7 °C 16.3 °C 1018.8 hPa Calm     76% 0 mm
22:14 20.7 °C 16.5 °C 1018.8 hPa Calm     77% 0 mm
22:19 20.7 °C 16.5 °C 1018.8 hPa Calm     77% 0 mm
22:24 20.6 °C 16.6 °C 1018.8 hPa Calm     78% 0 mm
22:29 20.6 °C 16.8 °C 1018.8 hPa Calm     79% 0 mm
22:34 20.6 °C 17 °C 1018.8 hPa Calm     80% 0 mm
22:39 20.5 °C 17.1 °C 1018.8 hPa Calm     81% 0 mm
22:44 20.4 °C 17.2 °C 1018.8 hPa Calm     82% 0 mm
22:49 20.4 °C 17.2 °C 1018.8 hPa Calm     82% 0 mm
22:54 20.3 °C 17.1 °C 1018.8 hPa Calm     82% 0 mm
22:59 20.2 °C 17.2 °C 1018.8 hPa Calm     83% 0 mm
23:04 20.2 °C 17.2 °C 1018.8 hPa Calm     83% 0 mm
23:09 20.2 °C 17.4 °C 1018.8 hPa Calm     84% 0 mm
23:19 20 °C 17 °C 1018.8 hPa Calm     83% 0 mm
23:24 19.9 °C 16.9 °C 1018.8 hPa Calm     83% 0 mm
23:29 19.8 °C 16.8 °C 1018.8 hPa Calm     83% 0 mm
23:34 19.7 °C 16.6 °C 1018.8 hPa Calm     82% 0 mm
23:39 19.6 °C 16.4 °C 1018.8 hPa Calm     82% 0 mm
23:44 19.6 °C 16.4 °C 1018.8 hPa Calm     82% 0 mm
23:49 19.6 °C 16.4 °C 1018.8 hPa Calm     82% 0 mm
23:54 19.5 °C 16.3 °C 1018.8 hPa Calm     82% 0 mm
23:59 19.5 °C 16.3 °C 1018.8 hPa Calm     82% 0 mm
Buffalo, New York, USA
Compliments of Weather Underground - 2.5 mb